COSMOS 1275 DEB, 42176

Orbit data source: Space-Track

COSMOS 1275 DEB, 42176 is space debris in LEO originally from a launch on Thu, 04 Jun 1981 UTC launched from the Plesetsk Missile And Space Complex (PKMTR). Debris objects in space refer to the collection of defunct objects orbiting the Earth. Examples of debris include non-operational satellites, rocket bodies, and fragments generated from explosions, collisions, or faulty payload assembly.

Loading next visibility...
Identifier
42176, 1981-053SQ
Orbit
LEO
Country
Flag of CISCIS
Related business
Manufacturer
Unknown
Mission
Spacecraft
Bus & Motor
Unknown
Mass
Unknown
Launch date (UTC)
1981-06-04 (44 years ago)
Launch vehicle
Unknown
Launch site
Plesetsk Missile And Space Complex (PKMTR)
Object type
Payload
Rocket body
Debris
Shape & HBR
Unknown shape, 0.1 m
Radar Cross Section
Small (<0.1 m²)

Expand to show TLE details & history
Last TLE update: 5 days ago

TLE from 5 days ago
0 COSMOS 1275 DEB
1 42176U 81053SQ  25284.61670115  .00001464  00000-0  15132-2 0  9994
2 42176  82.8995 239.9510 0105135 327.5583 212.6674 13.72893138594887
Epoch: 2025-10-11T14:48Z
TLE epoch observation values (Epoch: 2025-10-11T14:48:02.979Z)
Latitude
0.30191°
Longitude
177.45555°
Altitude
1,057.51 km
Speed
7.291 km/s
True Right ascension
03h 59m 39s
True Declination
0° 18' 01"
Sunlit
Object was in full shadow at epoch
Visualization orbit readout
Latitude
Unknown
Longitude
Unknown
Altitude
Unknown
Speed
Unknown
Apparent Right ascension
Unknown
Apparent Declination
Unknown
Sunlit
N/A
Visualization observer readout
Local Sidereal Time
10:32:05
Azimuth
Unknown
Elevation
Unknown
Doppler factor
Unknown
Orbital elements
Apogee altitude
1,063.782 km
Perigee altitude
908.929 km
Semi-major axis
7,364.492 km
Eccentricity
0.01051
Inclination
82.8995°
RAAN
239.951°
Arg. of periapsis
327.5583°
True anomaly
212.02425°
Mean anomaly
212.6674°
Eccentric anomaly
212.34512°
Mean motion
3.43423 °/min
Orbital period
104.83 mins
BSTAR
0.0015132
Loading maneuver chart data...
Computing Atmospheric mass density...

Documentation

Showing up to 5 results
|